Location: Unspecified
(0.0000°N, 0.0000°E)
Time: 07:42:13
(UTC+00:00)

Vanguard 2 - Pass Details

Date: 21 December 2018
Orbit: 552 x 2939 km, 32.9° (Epoch: 15 June)

Event Time Altitude Azimuth Distance (km) Brightness Sun altitude
Rises 03:35:52 0° 284° (WNW) 5,247 - -32.2°
Reaches altitude 10° 03:39:08 10° 277° (W) 4,542 - -31.5°
Exits shadow 03:45:33 32° 255° (WSW) 3,542 10.4 -30.1°
Maximum altitude 03:51:53 45° 209° (SSW) 3,347 10.6 -28.7°
Drops below altitude 10° 04:08:29 10° 142° (SE) 5,768 12.8 -24.9°
Sets 04:13:22 0° 136° (SE) 6,724 13.5 -23.8°
